Weather History for Mobridge, SD

Change the Weather History Date:

Monday, January 20, 2014

  Actual Average Record
Temperature  
Mean Temperature 16 °F 16 °F  
Max Temperature 34 °F 26 °F 64 °F (1964)
Min Temperature -3 °F 6 °F -30 °F (1954)
Degree Days  
Heating Degree Days 49 49  
Month to date heating degree days 959 980  
Since 1 July heating degree days 4457 4196  
Cooling Degree Days 0 0  
Month to date cooling degree days 0 0  
Year to date cooling degree days 0 0  
Moisture  
Dew Point 9 °F    
Average Humidity 76    
Maximum Humidity 85    
Minimum Humidity 66    
Precipitation  
Precipitation T in 0.01 in 0.40 in (1927)
Month to date precipitation 0.07 0.19  
Year to date precipitation 0.07 0.19  
Snow  
Snow 0.00 in - - ()
Month to date snowfall 1.9  
Since 1 July snowfall 19.9  
Snow Depth T in    
Sea Level Pressure  
Sea Level Pressure 30.20 in    
Wind  
Wind Speed 15 mph (NNW)    
Max Wind Speed 40 mph    
Max Gust Speed 52 mph    
Visibility 7 miles    
Events Snow    
T = Trace of Precipitation, MM = Missing Value Source: NWS Daily Summary

Daily Weather History Graph

Daily Weather History Graph

Search for Another Location

Airport:

Trip Planner

Search our weather history database for the weather conditions in past years. The results will help you decide how hot, cold, wet, or windy it might be!

Date:

Astronomy

Jan. 20, 2014 Rise Set
Actual Time 8:14 AM CST 5:31 PM CST
Civil Twilight 7:41 AM CST 6:03 PM CST
Nautical Twilight 7:05 AM CST 6:40 PM CST
Astronomical Twilight 6:30 AM CST 7:15 PM CST
Moon 10:24 PM CST 10:00 AM CST
Length of Visible Light 10h 22m
Length of Day
9h 16m
Waning Gibbous, 82% of the Moon is Illuminated
Jan 20
Waning Gibbous
Jan 23
Last Quarter
Jan 30
New
Feb 6
First Quarter
Feb 14
Full

Hourly Weather History & Observations

Time (CST) Temp. Windchill Dew Point Humidity Pressure Visibility Wind Dir Wind Speed Gust Speed Precip Events Conditions
12:52 AM 32.0 °F 27.5 °F 27.0 °F 82% 29.86 in 10.0 mi WNW 4.6 mph - N/A   Overcast
1:52 AM 30.9 °F 24.3 °F 26.1 °F 82% 29.87 in 10.0 mi WNW 6.9 mph - N/A   Partly Cloudy
2:52 AM 32.0 °F 23.6 °F 26.1 °F 79% 29.89 in 10.0 mi WNW 10.4 mph - N/A   Clear
3:52 AM 30.9 °F 21.7 °F 25.0 °F 79% 29.90 in 10.0 mi WNW 11.5 mph - N/A   Clear
4:52 AM 33.1 °F 22.6 °F 25.0 °F 72% 29.91 in 10.0 mi WNW 16.1 mph - N/A   Mostly Cloudy
5:52 AM 34.0 °F 22.1 °F 25.0 °F 70% 29.92 in 10.0 mi NW 21.9 mph 29.9 mph N/A   Overcast
6:52 AM 34.0 °F 21.3 °F 25.0 °F 70% 29.94 in 10.0 mi WNW 25.3 mph 34.5 mph N/A   Overcast
7:52 AM 34.0 °F 24.2 °F 27.0 °F 75% 29.95 in 10.0 mi WNW 15.0 mph - N/A   Overcast
8:25 AM 34.0 °F 20.8 °F 28.0 °F 79% 29.91 in 1.8 mi NW 27.6 mph 36.8 mph 0.00 in Snow Light Snow
8:36 AM 32.0 °F 17.9 °F 27.0 °F 82% 29.92 in 2.0 mi NW 28.8 mph 40.3 mph 0.00 in Snow Light Snow
8:43 AM 30.9 °F 15.7 °F 24.1 °F 76% 29.93 in 9.0 mi NW 32.2 mph 42.6 mph 0.00 in   Overcast
8:52 AM 30.9 °F 16.4 °F 23.0 °F 72% 29.99 in 10.0 mi NW 28.8 mph 39.1 mph 0.00 in Snow Light Snow
9:07 AM 30.0 °F 15.4 °F 21.0 °F 69% 29.95 in 2.5 mi NW 27.6 mph 47.2 mph 0.00 in Snow Light Snow
9:14 AM 28.9 °F 13.0 °F 19.9 °F 69% 29.96 in 9.0 mi NW 32.2 mph 43.7 mph 0.00 in Snow Light Snow
9:52 AM 25.0 °F 6.6 °F 17.1 °F 72% 30.06 in 7.0 mi NW 36.8 mph 51.8 mph 0.00 in Snow Light Snow
10:08 AM 24.1 °F 5.2 °F 17.1 °F 75% 30.03 in 1.8 mi NNW 38.0 mph 44.9 mph 0.00 in Snow Light Snow
10:13 AM 23.0 °F 4.9 °F 17.1 °F 78% 30.03 in 0.8 mi NNW 32.2 mph 44.9 mph 0.00 in Snow Light Snow
10:24 AM 21.9 °F 3.4 °F 17.1 °F 82% 30.06 in 1.2 mi North 32.2 mph 40.3 mph 0.00 in Snow Light Snow
10:39 AM 19.0 °F -1.1 °F 12.0 °F 74% 30.09 in 3.0 mi North 34.5 mph 42.6 mph 0.00 in Snow Light Snow
10:52 AM 17.1 °F -0.3 °F 9.0 °F 71% 30.20 in 8.0 mi North 21.9 mph 41.4 mph 0.00 in Snow Light Snow
11:17 AM 12.0 °F -8.5 °F 5.0 °F 73% 30.20 in 2.5 mi North 26.5 mph 34.5 mph 0.00 in Snow Light Snow
11:26 AM 10.9 °F -9.2 °F 5.0 °F 77% 30.21 in 1.5 mi North 24.2 mph 33.4 mph 0.00 in Snow Light Snow
11:38 AM 10.0 °F -10.8 °F 1.9 °F 70% 30.23 in 3.0 mi North 25.3 mph 38.0 mph 0.00 in Snow Light Snow
11:42 AM 10.0 °F -12.2 °F 1.9 °F 70% 30.24 in 2.0 mi North 29.9 mph 38.0 mph 0.00 in Snow Light Snow
11:49 AM 8.6 °F -14.5 °F 1.4 °F 73% 30.25 in 1.0 mi North 31.1 mph 39.1 mph 0.00 in Snow Light Snow
11:52 AM 8.1 °F -14.9 °F 1.0 °F 73% 30.35 in 1.2 mi North 29.9 mph 40.3 mph 0.00 in Snow Light Snow
11:58 AM 8.1 °F -11.7 °F 1.0 °F 73% 30.27 in 3.0 mi North 20.7 mph 40.3 mph 0.00 in Snow Light Snow
12:28 PM 6.1 °F -16.8 °F -2.9 °F 67% 30.30 in 10.0 mi North 27.6 mph 38.0 mph 0.00 in   Overcast
12:52 PM 5.0 °F -18.3 °F -2.9 °F 70% 30.41 in 9.0 mi North 27.6 mph 35.7 mph 0.00 in   Overcast
1:52 PM 3.9 °F -16.6 °F -5.1 °F 66% 30.47 in 7.0 mi North 19.6 mph 28.8 mph 0.00 in   Overcast
2:52 PM 5.0 °F -16.2 °F -5.1 °F 63% 30.47 in 10.0 mi North 21.9 mph 31.1 mph 0.00 in   Partly Cloudy
3:52 PM 5.0 °F -13.6 °F -5.1 °F 63% 30.51 in 10.0 mi North 16.1 mph 27.6 mph 0.00 in   Clear
4:52 PM 3.9 °F -12.2 °F -4.0 °F 70% 30.53 in 10.0 mi North 11.5 mph - N/A   Partly Cloudy
5:52 PM 3.0 °F -14.1 °F -6.0 °F 66% 30.57 in 10.0 mi North 12.7 mph - N/A   Clear
6:52 PM 1.0 °F -15.8 °F -8.0 °F 66% 30.58 in 10.0 mi North 11.5 mph - N/A   Clear
7:52 PM -0.0 °F -9.9 °F -7.1 °F 72% 30.58 in 10.0 mi East 4.6 mph - N/A   Clear
8:52 PM -2.0 °F - -8.0 °F 76% 30.59 in 10.0 mi Calm Calm - N/A   Clear
9:52 PM -2.0 °F -13.9 °F -9.0 °F 72% 30.60 in 10.0 mi East 5.8 mph - N/A   Clear
10:52 PM -2.9 °F -15.0 °F -9.0 °F 75% 30.61 in 10.0 mi East 5.8 mph - N/A   Clear
11:52 PM -2.0 °F -12.2 °F -9.0 °F 72% 30.59 in 10.0 mi ESE 4.6 mph - N/A   Clear